When you browse on this site, cookies collect data to enhance your experience and personalize the content and advertising you see.
Visit our Privacy Policy to learn more. By continuing to use the site, you agree to this use of cookies and data.
  • en France
  • Liste des pays
  • À 7 jours
  • Température de l'eau
  • Carte satellitaire
  • Carte météo
  • Widgets météo
  • user-avatar
    Se connecter

    Météo par heure à Wuzhou

    Ce jour, 19 Juillet, Vendredi

    Heure Température Précipitation Vent Pression Humidité
    00:00 +28°C° 0.2 mm 0 m/s 746 mmHg 87%
    01:00 +27°C° 0 mm 0 m/s 746 mmHg 87%
    02:00 +27°C° 0.9 mm 0 m/s 746 mmHg 89%
    03:00 +27°C° 0.9 mm 0 m/s 746 mmHg 91%
    04:00 +26°C° 0.9 mm 0 m/s 746 mmHg 93%
    05:00 +27°C° 0.3 mm 0 m/s 746 mmHg 91%
    06:00 +30°C° 0.3 mm 1 m/s 747 mmHg 89%
    07:00 +31°C° 0 mm 1 m/s 747 mmHg 87%
    08:00 +32°C° 0.6 mm 1 m/s 747 mmHg 83%
    09:00 +33°C° 0.6 mm 1 m/s 747 mmHg 79%
    10:00 +35°C° 0.6 mm 2 m/s 747 mmHg 75%
    11:00 +36°C° 0.6 mm 2 m/s 747 mmHg 71%
    12:00 +37°C° 0.6 mm 2 m/s 747 mmHg 66%
    13:00 +38°C° 0.6 mm 2 m/s 746 mmHg 62%
    14:00 +38°C° 0 mm 2 m/s 746 mmHg 62%
    15:00 +37°C° 0 mm 2 m/s 746 mmHg 62%
    16:00 +37°C° 0 mm 2 m/s 745 mmHg 62%
    17:00 +35°C° 0 mm 1 m/s 746 mmHg 68%
    18:00 +33°C° 0 mm 1 m/s 746 mmHg 74%
    19:00 +32°C° 0 mm 1 m/s 747 mmHg 80%
    20:00 +29°C° 0.1 mm 0 m/s 747 mmHg 82%
    21:00 +29°C° 0.1 mm 0 m/s 747 mmHg 84%
    22:00 +28°C° 0.1 mm 0 m/s 748 mmHg 86%
    23:00 +28°C° 0 mm 0 m/s 748 mmHg 87%

    Demain, 20 Juillet, Samedi

    Heure Température Précipitation Vent Pression Humidité
    00:00 +28°C° 0 mm 0 m/s 748 mmHg 88%
    01:00 +28°C° 0 mm 0 m/s 747 mmHg 89%
    02:00 +27°C° 0 mm 0 m/s 747 mmHg 89%
    03:00 +27°C° 0 mm 0 m/s 747 mmHg 90%
    04:00 +27°C° 0 mm 0 m/s 747 mmHg 91%
    05:00 +28°C° 0.1 mm 0 m/s 748 mmHg 88%
    06:00 +29°C° 0.1 mm 0 m/s 748 mmHg 86%
    07:00 +29°C° 0.1 mm 0 m/s 749 mmHg 83%
    08:00 +33°C° 0.2 mm 1 m/s 749 mmHg 76%
    09:00 +34°C° 0.2 mm 1 m/s 749 mmHg 69%
    10:00 +36°C° 0.2 mm 2 m/s 749 mmHg 62%
    11:00 +37°C° 0 mm 2 m/s 749 mmHg 61%
    12:00 +37°C° 0 mm 2 m/s 748 mmHg 59%
    13:00 +38°C° 0 mm 2 m/s 748 mmHg 58%
    14:00 +37°C° 0.2 mm 2 m/s 747 mmHg 62%
    15:00 +37°C° 0.2 mm 2 m/s 747 mmHg 66%
    16:00 +36°C° 0.2 mm 2 m/s 747 mmHg 70%
    17:00 +35°C° 0 mm 2 m/s 747 mmHg 75%
    18:00 +32°C° 0 mm 2 m/s 747 mmHg 80%
    19:00 +31°C° 0 mm 1 m/s 748 mmHg 85%
    20:00 +30°C° 0 mm 1 m/s 748 mmHg 86%
    21:00 +30°C° 0 mm 1 m/s 749 mmHg 87%
    22:00 +30°C° 0 mm 1 m/s 749 mmHg 88%
    23:00 +30°C° 0.1 mm 1 m/s 749 mmHg 89%

    Après-demain, 21 Juillet, Dimanche

    Heure Température Précipitation Vent Pression Humidité
    00:00 +29°C° 0.1 mm 1 m/s 749 mmHg 90%
    01:00 +29°C° 0.1 mm 1 m/s 749 mmHg 91%
    02:00 +29°C° 0.7 mm 1 m/s 748 mmHg 92%
    03:00 +29°C° 0.7 mm 1 m/s 748 mmHg 94%
    04:00 +28°C° 0.7 mm 1 m/s 748 mmHg 95%
    05:00 +29°C° 0.1 mm 1 m/s 748 mmHg 92%
    06:00 +30°C° 0.1 mm 1 m/s 749 mmHg 90%
    07:00 +30°C° 0.1 mm 1 m/s 749 mmHg 87%
    08:00 +31°C° 0.9 mm 1 m/s 749 mmHg 84%
    09:00 +32°C° 0.9 mm 1 m/s 750 mmHg 80%
    10:00 +34°C° 0.9 mm 2 m/s 750 mmHg 77%
    11:00 +33°C° 0.7 mm 1 m/s 749 mmHg 78%
    12:00 +33°C° 0.7 mm 1 m/s 749 mmHg 79%
    13:00 +32°C° 0.7 mm 1 m/s 748 mmHg 81%
    14:00 +32°C° 0 mm 1 m/s 748 mmHg 80%
    15:00 +32°C° 0 mm 1 m/s 747 mmHg 80%
    16:00 +32°C° 0 mm 1 m/s 746 mmHg 80%
    17:00 +29°C° 0 mm 0 m/s 747 mmHg 82%
    18:00 +28°C° 0 mm 0 m/s 747 mmHg 83%
    19:00 +28°C° 0 mm 0 m/s 747 mmHg 85%
    20:00 +27°C° 0 mm 0 m/s 748 mmHg 85%
    21:00 +27°C° 0 mm 0 m/s 749 mmHg 86%
    22:00 +27°C° 0 mm 0 m/s 749 mmHg 86%
    23:00 +27°C° 0.2 mm 0 m/s 749 mmHg 87%

    22 Juillet, Lundi

    Heure Température Précipitation Vent Pression Humidité
    00:00 +26°C° 0.2 mm 0 m/s 749 mmHg 89%
    01:00 +26°C° 0.2 mm 0 m/s 749 mmHg 90%
    02:00 +26°C° 0 mm 0 m/s 748 mmHg 92%
    03:00 +26°C° 0 mm 0 m/s 748 mmHg 93%
    04:00 +25°C° 0 mm 0 m/s 748 mmHg 95%
    05:00 +26°C° 0 mm 0 m/s 748 mmHg 92%
    06:00 +27°C° 0 mm 0 m/s 748 mmHg 89%
    07:00 +30°C° 0 mm 1 m/s 749 mmHg 86%
    08:00 +32°C° 0.3 mm 1 m/s 749 mmHg 79%
    09:00 +33°C° 0.3 mm 1 m/s 749 mmHg 71%
    10:00 +35°C° 0.3 mm 1 m/s 749 mmHg 64%
    11:00 +36°C° 0.3 mm 2 m/s 748 mmHg 63%
    12:00 +37°C° 0.3 mm 2 m/s 747 mmHg 62%
    13:00 +37°C° 0.3 mm 2 m/s 747 mmHg 60%
    14:00 +36°C° 1.7 mm 2 m/s 746 mmHg 65%
    15:00 +36°C° 1.7 mm 2 m/s 746 mmHg 71%
    16:00 +35°C° 1.7 mm 2 m/s 746 mmHg 76%
    17:00 +33°C° 0.6 mm 1 m/s 746 mmHg 80%
    18:00 +31°C° 0.6 mm 1 m/s 747 mmHg 84%
    19:00 +30°C° 0.6 mm 1 m/s 747 mmHg 88%
    20:00 +29°C° 0.5 mm 1 m/s 748 mmHg 89%
    21:00 +29°C° 0.5 mm 1 m/s 748 mmHg 90%
    22:00 +29°C° 0.5 mm 1 m/s 749 mmHg 91%
    23:00 +28°C° 0.1 mm 1 m/s 748 mmHg 92%

    23 Juillet, Mardi

    Heure Température Précipitation Vent Pression Humidité
    00:00 +26°C° 0.1 mm 0 m/s 748 mmHg 92%
    01:00 +26°C° 0.1 mm 0 m/s 748 mmHg 93%
    02:00 +26°C° 0 mm 0 m/s 748 mmHg 94%
    03:00 +25°C° 0 mm 0 m/s 747 mmHg 94%
    04:00 +25°C° 0 mm 0 m/s 747 mmHg 95%
    05:00 +26°C° 0 mm 0 m/s 747 mmHg 92%
    06:00 +27°C° 0 mm 0 m/s 748 mmHg 90%
    07:00 +28°C° 0 mm 0 m/s 748 mmHg 87%
    08:00 +29°C° 1.3 mm 0 m/s 748 mmHg 83%
    09:00 +30°C° 1.3 mm 0 m/s 748 mmHg 79%
    10:00 +33°C° 1.3 mm 1 m/s 748 mmHg 75%
    11:00 +34°C° 1 mm 1 m/s 748 mmHg 71%
    12:00 +35°C° 1 mm 1 m/s 747 mmHg 67%
    13:00 +36°C° 1 mm 1 m/s 747 mmHg 63%
    14:00 +35°C° 1.1 mm 1 m/s 747 mmHg 66%
    15:00 +35°C° 1.1 mm 2 m/s 746 mmHg 70%
    16:00 +35°C° 1.1 mm 2 m/s 746 mmHg 74%
    17:00 +33°C° 0.3 mm 1 m/s 746 mmHg 78%
    18:00 +31°C° 0.3 mm 1 m/s 747 mmHg 82%
    19:00 +28°C° 0.3 mm 0 m/s 747 mmHg 86%
    20:00 +28°C° 0.2 mm 0 m/s 748 mmHg 87%
    21:00 +27°C° 0.2 mm 0 m/s 748 mmHg 88%
    22:00 +27°C° 0.2 mm 0 m/s 749 mmHg 88%
    23:00 +27°C° 0.3 mm 0 m/s 748 mmHg 89%

    24 Juillet, Mercredi

    Heure Température Précipitation Vent Pression Humidité
    00:00 +26°C° 0.3 mm 0 m/s 748 mmHg 91%
    01:00 +26°C° 0.3 mm 0 m/s 748 mmHg 92%
    02:00 +26°C° 0 mm 0 m/s 748 mmHg 93%
    03:00 +25°C° 0 mm 0 m/s 748 mmHg 94%
    04:00 +27°C° 0 mm 1 m/s 748 mmHg 94%
    05:00 +28°C° 0 mm 1 m/s 748 mmHg 92%
    06:00 +29°C° 0 mm 1 m/s 748 mmHg 90%
    07:00 +29°C° 0 mm 1 m/s 748 mmHg 88%
    08:00 +31°C° 0.2 mm 1 m/s 749 mmHg 83%
    09:00 +32°C° 0.2 mm 1 m/s 749 mmHg 78%
    10:00 +33°C° 0.2 mm 1 m/s 749 mmHg 73%
    11:00 +34°C° 0.3 mm 1 m/s 748 mmHg 69%
    12:00 +35°C° 0.3 mm 1 m/s 748 mmHg 64%
    13:00 +36°C° 0.3 mm 1 m/s 748 mmHg 60%
    14:00 +35°C° 0.9 mm 1 m/s 747 mmHg 65%
    15:00 +35°C° 0.9 mm 2 m/s 747 mmHg 71%
    16:00 +34°C° 0.9 mm 2 m/s 747 mmHg 76%
    17:00 +32°C° 0.7 mm 2 m/s 747 mmHg 81%
    18:00 +31°C° 0.7 mm 1 m/s 748 mmHg 85%
    19:00 +29°C° 0.7 mm 1 m/s 748 mmHg 90%
    20:00 +29°C° 0.2 mm 1 m/s 749 mmHg 91%
    21:00 +29°C° 0.2 mm 1 m/s 750 mmHg 91%
    22:00 +28°C° 0.2 mm 1 m/s 750 mmHg 92%
    23:00 +28°C° 0 mm 1 m/s 750 mmHg 93%
    Voir plus